• Join FlightAware (Why Join?)
  • Login
  • US Flag GB Flag 
18:57 EDT


 

Airport Tracker/Info


-or-


 

Live Flight TrackerFlight Track Log ✈ AAL2007 ✈ 26-Aug-2013 ✈ KORD - KAUS

Flight Track Log - Related Links

Times and Time Zones

All times are in EDT time to prevent confusion due to time zone crossing. See the AAL2007 flight status page for this flight to view local times or setup timezone preferences in your user account.

Time Position Orientation Groundspeed Altitude Reporting Facility
EDT Latitude Longitude Course Direction KTS MPH feet Rate Location/Type
18:02 41.9833 -87.9833 207° Southwest 189 217 2,900  Level Chicago TRACON
18:03 41.9333 -88.0333 217° Southwest 249 287 4,500 1,080 Climbing Chicago TRACON
18:04 41.8667 -88.0500 191° South 273 314 5,000 360 Climbing Chicago TRACON
18:06 41.7617 -88.0394 176° South 265 305 5,400 960 Climbing Chicago Center
18:07 41.6981 -88.0892 210° Southwest 267 307 7,500 2,220 Climbing Chicago Center
18:08 41.4340 -88.4519 207° Southwest  Level Estimated
18:08 41.6192 -88.1108 192° South 290 334 10,100  Level Chicago Center
18:09 41.5353 -88.1375 193° South 313 360 12,300 2,040 Climbing Chicago Center
18:10 41.4297 -88.1742 195° South 341 392 14,400 1,920 Climbing Chicago Center
18:11 41.3303 -88.2144 197° South 382 440 16,300 1,860 Climbing Chicago Center
18:12 41.2278 -88.2606 199° South 392 451 18,300 1,860 Climbing Chicago Center
18:13 41.1219 -88.3083 199° South 404 465 20,200 1,860 Climbing Chicago Center
18:14 40.9889 -88.3683 199° South 421 484 22,200 1,680 Climbing Chicago Center
18:15 40.8750 -88.4183 198° South 429 494 23,700 1,440 Climbing Chicago Center
18:16 40.7578 -88.4706 199° South 442 509 25,200 1,440 Climbing Chicago Center
18:17 40.6389 -88.5242 199° South 450 518 26,700 1,320 Climbing Chicago Center
18:18 40.5172 -88.5772 198° South 458 527 28,000 1,260 Climbing Chicago Center
18:19 40.3692 -88.6414 198° South 465 535 29,400 1,200 Climbing Chicago Center
18:20 40.2578 -88.7417 215° Southwest 484 557 30,500 1,140 Climbing Chicago Center
18:21 40.1672 -88.8581 225° Southwest 463 533 31,800 720 Climbing Chicago Center
18:22 40.0742 -88.9750 224° Southwest 462 532 32,000 60 Climbing Chicago Center
18:23 39.9803 -89.0919 224° Southwest 463 533 32,000  Level Chicago Center
18:24 39.9050 -89.1903 225° Southwest 464 534 32,000  Level Kansas City Center
18:25 39.8117 -89.3061 224° Southwest 462 532 32,000  Level Kansas City Center
18:26 39.7192 -89.4242 224° Southwest 463 533 32,000  Level Kansas City Center
18:27 39.6111 -89.5572 224° Southwest 461 531 32,000  Level Kansas City Center
18:28 39.5186 -89.6733 224° Southwest 462 532 32,000  Level Kansas City Center
18:29 39.4253 -89.7897 224° Southwest 465 535 32,000  Level Kansas City Center
18:30 39.3317 -89.9053 224° Southwest 467 537 32,000  Level Kansas City Center
18:31 39.2386 -90.0214 224° Southwest 467 537 32,000  Level Kansas City Center
18:32 39.1442 -90.1369 224° Southwest 468 539 32,000  Level Kansas City Center
18:33 39.0317 -90.2764 224° Southwest 471 542 32,000  Level Kansas City Center
18:34 38.9367 -90.3922 224° Southwest 473 544 32,000  Level Kansas City Center
18:35 38.8467 -90.5044 224° Southwest 469 540 32,000  Level Kansas City Center
18:36 38.7472 -90.6128 220° Southwest 464 534 32,000  Level Kansas City Center
18:38 38.6289 -90.7511 222° Southwest 483 556 32,000  Level Kansas City Center
18:39 38.5317 -90.8614 222° Southwest 477 549 32,000  Level Kansas City Center
18:40 38.4333 -90.9758 222° Southwest 478 550 32,000  Level Kansas City Center
18:41 38.3350 -91.0858 221° Southwest 476 548 32,000  Level Kansas City Center
18:42 38.2375 -91.1958 222° Southwest 472 543 32,000  Level Kansas City Center
18:43 38.1333 -91.3131 222° Southwest 471 542 32,000  Level Kansas City Center
18:44 38.0361 -91.4228 222° Southwest 467 537 32,000  Level Kansas City Center
18:45 37.9192 -91.5564 222° Southwest 469 540 32,000  Level Kansas City Center
18:46 37.8214 -91.6658 221° Southwest 467 537 32,000  Level Kansas City Center
18:47 37.7228 -91.7750 221° Southwest 467 537 32,000  Level Kansas City Center
18:48 37.6261 -91.8828 221° Southwest 462 532 32,000  Level Kansas City Center
18:49 37.5294 -91.9925 222° Southwest 462 532 32,000  Level Kansas City Center
18:50 37.4306 -92.1011 221° Southwest 465 535 32,000  Level Kansas City Center
18:51 37.3322 -92.2108 222° Southwest 468 539 32,000  Level Kansas City Center
18:52 37.2361 -92.3158 221° Southwest 460 529 32,000  Level Kansas City Center
18:53 37.1419 -92.4197 221° Southwest 453 521 32,000  Level Kansas City Center
18:54 37.0289 -92.5406 220° Southwest 446 513 32,000  Level Kansas City Center
18:55 36.9342 -92.6417 220° Southwest 445 512 32,000  Level Kansas City Center
18:56 36.8397 -92.7431 221° Southwest 447 514 32,000  Level Kansas City Center
18:57 36.7456 -92.8444 221° Southwest 446 513 32,000  Level Kansas City Center
18:58 36.6497 -92.9439 220° Southwest 448 516 32,000  Level Kansas City Center
18:59 36.5472 -93.0550 221° Southwest 449 517 32,000  Level Kansas City Center
19:00 36.4539 -93.1558 221° Southwest 447 514 32,000  Level Kansas City Center
19:01 36.3594 -93.2547 220° Southwest 447 514 32,000  Level Kansas City Center
19:02 36.2639 -93.3564 221° Southwest 450 518 32,000  Level Kansas City Center
19:03 36.1694 -93.4589 221° Southwest 453 521 32,000  Level Kansas City Center
19:04 36.0558 -93.5769 220° Southwest 450 518 32,000  Level Kansas City Center
19:05 35.9614 -93.6767 221° Southwest 450 518 32,000  Level Kansas City Center
19:06 35.8664 -93.7758 220° Southwest 450 518 32,000  Level Kansas City Center
19:08 35.7453 -93.9072 221° Southwest 452 520 32,000  Level Memphis Center
19:09 35.6467 -94.0025 218° Southwest 452 520 32,000  Level Memphis Center
19:10 35.5606 -94.0958 221° Southwest 459 528 32,000  Level Memphis Center
19:11 35.4636 -94.1933 219° Southwest 459 528 32,000  Level Memphis Center
19:12 35.3628 -94.2881 217° Southwest 459 528 32,000  Level Memphis Center
19:14 35.1442 -94.4583 213° Southwest 450 518 32,000  Level Fort Worth Center
19:15 35.0356 -94.5406 212° Southwest 455 524 32,000  Level Fort Worth Center
19:16 34.9289 -94.6203 212° Southwest 455 524 32,000  Level Fort Worth Center
19:17 34.8119 -94.7150 214° Southwest 455 524 32,000  Level Fort Worth Center
19:18 34.7053 -94.7967 212° Southwest 455 524 32,000  Level Fort Worth Center
19:19 34.5964 -94.8783 212° Southwest 455 524 32,000  Level Fort Worth Center
19:20 34.4894 -94.9569 211° Southwest 455 524 32,000  Level Fort Worth Center
19:21 34.3844 -95.0331 211° Southwest 455 524 32,000  Level Fort Worth Center
19:22 34.2733 -95.1189 213° Southwest 462 532 32,000  Level Fort Worth Center
19:23 34.1642 -95.1972 211° Southwest 462 532 32,000  Level Fort Worth Center
19:24 34.0572 -95.2775 212° Southwest 468 539 32,000  Level Fort Worth Center
19:25 33.9478 -95.3578 211° Southwest 462 532 32,000  Level Fort Worth Center
19:26 33.8386 -95.4381 211° Southwest 467 537 32,000  Level Fort Worth Center
19:27 33.7314 -95.5203 213° Southwest 467 537 32,000  Level Fort Worth Center
19:28 33.6342 -95.5872 210° Southwest 456 525 32,000 -240 Level Fort Worth Center
19:29 33.5083 -95.6794 211° Southwest 456 525 31,600 -960 Descending Fort Worth Center
19:30 33.4008 -95.7589 212° Southwest 469 540 30,100 -840 Descending Fort Worth Center
19:31 33.2889 -95.8356 210° Southwest 469 540 30,000 -60 Descending Fort Worth Center
19:32 33.1814 -95.9142 211° Southwest 463 533 30,000  Level Fort Worth Center
19:33 33.0697 -95.9931 211° Southwest 468 539 30,000  Level Fort Worth Center
19:34 32.9600 -96.0739 212° Southwest 468 539 30,000  Level Fort Worth Center
19:35 32.8481 -96.1522 210° Southwest 468 539 30,000  Level Fort Worth Center
19:36 32.7422 -96.2328 213° Southwest 468 539 30,000  Level Fort Worth Center
19:37 32.6322 -96.3083 210° Southwest 468 539 30,000  Level Fort Worth Center
19:38 32.5203 -96.3883 211° Southwest 468 539 30,000  Level Fort Worth Center
19:39 32.4103 -96.4661 211° Southwest 468 539 30,000 -60 Level Fort Worth Center
19:40 32.3022 -96.5433 211° Southwest 463 533 29,900 -840 Descending Fort Worth Center
19:41 32.1919 -96.6206 211° Southwest 463 533 28,400 -1,500 Descending Fort Worth Center
19:42 32.0819 -96.6975 211° Southwest 463 533 26,900 -1,500 Descending Fort Worth Center
19:43 31.9717 -96.7742 211° Southwest 463 533 25,500 -1,080 Descending Fort Worth Center
19:44 31.8822 -96.8383 211° Southwest 451 519 24,800 -720 Descending Fort Worth Center
19:45 31.7483 -96.9322 211° Southwest 409 471 23,900 -840 Descending Houston Center
19:46 31.6511 -96.9997 211° Southwest 404 465 22,900 -960 Descending Houston Center
19:47 31.5536 -97.0667 210° Southwest 401 461 22,000 -480 Descending Houston Center
19:48 31.4489 -97.1142 201° Southwest 401 461 22,000 -180 Level Houston Center
19:49 31.3411 -97.1567 199° South 403 464 21,700 -900 Descending Houston Center
19:50 31.2317 -97.1997 199° South 408 470 20,200 -1,740 Descending Houston Center
19:51 31.1100 -97.2475 199° South 395 455 18,200 -1,920 Descending Houston Center
19:52 31.0111 -97.2867 199° South 378 435 16,300 -1,800 Descending Houston Center
19:53 30.9161 -97.3244 199° South 377 434 14,600 -1,800 Descending Houston Center
19:54 30.8219 -97.3592 198° South 360 414 12,700 -1,920 Descending Houston Center
19:55 30.7431 -97.4261 216° Southwest 356 410 10,700 -1,320 Descending Houston Center
19:56 30.6753 -97.5028 224° Southwest 341 392 10,100 -780 Descending Houston Center
19:57 30.6131 -97.5789 226° Southwest 289 333 9,200 -1,260 Descending Houston Center
19:58 30.5642 -97.6369 226° Southwest 260 299 7,600 -1,740 Descending Houston Center
19:59 30.5028 -97.6742 208° Southwest 247 284 5,700 -1,500 Descending Houston Center
20:00 30.4414 -97.6847 188° South 235 270 4,600 -1,020 Descending Houston Center
20:01 30.3775 -97.6844 180° South 230 265 3,600 -1,080 Descending Houston Center
20:02 30.3197 -97.6817 178° South 213 245 2,500 -900 Descending Houston Center
20:03 30.2611 -97.6800 179° South 199 229 1,800 -780 Descending Houston Center
20:05 30.2292 -97.6783 177° South 160 184 1,000 -780 Descending Houston Center